Weather History for KO86 - October, 2012

Change the Weather History Date:

Monday, October 22, 2012

  Actual Average (KMHS) Record (KMHS)
Temperature  
Mean Temperature 44 °F 49 °F  
Max Temperature 50 °F 63 °F 81 °F (1965)
Min Temperature 37 °F 35 °F 22 °F (1961)
Degree Days  
Heating Degree Days 22 16  
Month to date heating degree days 267  
Since 1 July heating degree days 504  
Cooling Degree Days 0 0  
Month to date cooling degree days 0  
Year to date cooling degree days 287  
Moisture  
Dew Point 37 °F    
Average Humidity 82    
Maximum Humidity 100    
Minimum Humidity 50    
Precipitation  
Precipitation 0.32 in 0.09 in 2.74 in (1973)
Month to date precipitation 1.26  
Year to date precipitation 29.26  
Sea Level Pressure  
Sea Level Pressure 29.77 in    
Wind  
Wind Speed 4 mph ()    
Max Wind Speed 20 mph    
Max Gust Speed 29 mph    
Visibility 8.5 miles    
Events      
T = Trace of Precipitation, MM = Missing Value Source: Averaged Metar Reports

Daily Weather History Graph

Daily Weather History Graph

Search for Another Location

Airport or City:

Trip Planner

Search our weather history database for the weather conditions in past years. The results will help you decide how hot, cold, wet, or windy it might be!

Date:

Astronomy

Oct. 22, 2012 Rise Set
Actual Time 7:30 AM PDT 6:18 PM PDT
Civil Twilight 7:02 AM PDT 6:46 PM PDT
Nautical Twilight 6:30 AM PDT 7:19 PM PDT
Astronomical Twilight 5:58 AM PDT 7:50 PM PDT
Moon 2:33 PM PDT (10/22) 12:20 AM PDT (10/22)
Length of Visible Light 11h 44m
Length of Day
10h 48m
First Quarter, 57% of the Moon is Illuminated
Oct 22
First Quarter
Oct 29
Full
Nov 6
Last Quarter
Nov 13
New
Nov 20
First Quarter

Hourly Weather History & Observations

Time (PDT) Temp. Windchill Dew Point Humidity Pressure Visibility Wind Dir Wind Speed Gust Speed Precip Events Conditions
12:10 AM 50.0 °F - 39.2 °F 66% 29.75 in 9.0 mi South 9.2 mph - N/A   Overcast
12:50 AM 46.4 °F 42.9 °F 41.0 °F 81% 29.75 in 6.0 mi West 6.9 mph - 0.02 in   Overcast
1:10 AM 44.6 °F 40.7 °F 39.2 °F 81% 29.75 in 3.0 mi SSW 6.9 mph - 0.04 in   Overcast
1:30 AM 44.6 °F 40.2 °F 39.2 °F 81% 29.76 in 5.0 mi South 8.1 mph - 0.07 in   Overcast
2:10 AM 42.8 °F - 39.2 °F 87% 29.75 in 5.0 mi Calm Calm - 0.02 in   Overcast
2:30 AM 42.8 °F - 39.2 °F 87% 29.75 in 5.0 mi Calm Calm - 0.06 in   Overcast
2:50 AM 41.0 °F 37.1 °F 39.2 °F 93% 29.75 in 5.0 mi SSW 5.8 mph - 0.11 in   Overcast
3:10 AM 41.0 °F 38.0 °F 39.2 °F 93% 29.73 in 5.0 mi SW 4.6 mph - 0.02 in   Overcast
3:30 AM 41.0 °F - 39.2 °F 93% 29.72 in 5.0 mi Calm Calm - 0.05 in   Overcast
4:10 AM 41.0 °F - 39.2 °F 93% 29.72 in 3.0 mi Calm Calm - 0.01 in   Overcast
5:10 AM 39.2 °F - 37.4 °F 93% 29.73 in 7.0 mi Calm Calm - 0.02 in   Overcast
6:10 AM 37.4 °F - 37.4 °F 100% 29.73 in 4.0 mi Calm Calm - 0.01 in   Overcast
6:30 AM 37.4 °F - 37.4 °F 100% 29.72 in 5.0 mi Calm Calm - 0.02 in   Overcast
7:10 AM 37.4 °F 34.9 °F 37.4 °F 100% 29.72 in 7.0 mi NW 3.5 mph - N/A   Overcast
7:30 AM 37.4 °F 33.8 °F 35.6 °F 93% 29.72 in 8.0 mi NW 4.6 mph - 0.01 in   Overcast
7:50 AM 37.4 °F - 35.6 °F 93% 29.72 in 10.0 mi Calm Calm - 0.01 in   Overcast
8:10 AM 37.4 °F 34.9 °F 37.4 °F 100% 29.72 in 10.0 mi West 3.5 mph - N/A   Overcast
8:30 AM 39.2 °F - 37.4 °F 93% 29.73 in 10.0 mi Calm Calm - N/A   Overcast
8:50 AM 39.2 °F - 37.4 °F 93% 29.74 in 10.0 mi Calm Calm - N/A   Overcast
9:10 AM 39.2 °F 37.0 °F 37.4 °F 93% 29.74 in 10.0 mi NW 3.5 mph - N/A   Overcast
9:30 AM 39.2 °F - 37.4 °F 93% 29.75 in 10.0 mi Calm Calm - N/A   Overcast
9:50 AM 41.0 °F - 37.4 °F 87% 29.75 in 10.0 mi Calm Calm - N/A   Overcast
10:10 AM 41.0 °F - 37.4 °F 87% 29.76 in 10.0 mi Calm Calm - N/A   Overcast
10:30 AM 42.8 °F - 37.4 °F 81% 29.76 in 10.0 mi Calm Calm - N/A   Mostly Cloudy
10:50 AM 44.6 °F - 39.2 °F 81% 29.76 in 10.0 mi Calm Calm - N/A   Mostly Cloudy
11:10 AM 46.4 °F - 39.2 °F 76% 29.76 in 10.0 mi Calm Calm - N/A   Mostly Cloudy
11:30 AM 48.2 °F - 41.0 °F 76% 29.76 in 10.0 mi East 3.5 mph - N/A   Mostly Cloudy
11:50 AM 48.2 °F - 39.2 °F 71% 29.76 in 10.0 mi South 6.9 mph - N/A   Mostly Cloudy
12:10 PM 50.0 °F - 37.4 °F 62% 29.75 in 10.0 mi South 15.0 mph 20.7 mph N/A   Partly Cloudy
12:50 PM 50.0 °F - 35.6 °F 58% 29.76 in 10.0 mi South 15.0 mph 19.6 mph N/A   Clear
1:10 PM 50.0 °F - 32.0 °F 50% 29.76 in 10.0 mi SSE 15.0 mph 21.9 mph N/A   Partly Cloudy
1:30 PM 48.2 °F - 35.6 °F 62% 29.77 in 10.0 mi South 19.6 mph 28.8 mph N/A   Clear
1:50 PM 44.6 °F 38.1 °F 35.6 °F 71% 29.78 in 10.0 mi South 13.8 mph - N/A   Clear
2:10 PM 46.4 °F 44.3 °F 35.6 °F 66% 29.78 in 10.0 mi South 4.6 mph - N/A   Scattered Clouds
2:30 PM 46.4 °F 40.1 °F 35.6 °F 66% 29.77 in 10.0 mi SSE 15.0 mph 23.0 mph N/A   Scattered Clouds
2:50 PM 46.4 °F 41.1 °F 35.6 °F 66% 29.78 in 10.0 mi South 11.5 mph 20.7 mph N/A   Partly Cloudy
3:10 PM 46.4 °F 41.9 °F 33.8 °F 62% 29.77 in 10.0 mi SSW 9.2 mph - N/A   Clear
3:30 PM 44.6 °F 40.7 °F 32.0 °F 61% 29.77 in 10.0 mi South 6.9 mph - N/A   Clear
4:10 PM 46.4 °F 41.9 °F 33.8 °F 62% 29.77 in 10.0 mi South 9.2 mph - N/A   Clear
4:30 PM 46.4 °F - 32.0 °F 57% 29.77 in 10.0 mi Calm Calm - N/A   Scattered Clouds
4:50 PM 46.4 °F 44.3 °F 32.0 °F 57% 29.77 in 10.0 mi WSW 4.6 mph - N/A   Scattered Clouds
5:10 PM 44.6 °F 40.2 °F 32.0 °F 61% 29.78 in 10.0 mi SSW 8.1 mph - N/A   Mostly Cloudy
5:30 PM 42.8 °F 36.6 °F 35.6 °F 76% 29.78 in 7.0 mi SSW 11.5 mph 19.6 mph N/A   Mostly Cloudy
5:50 PM 41.0 °F 39.0 °F 35.6 °F 81% 29.78 in 7.0 mi SSW 3.5 mph - N/A   Scattered Clouds
6:10 PM 41.0 °F - 37.4 °F 87% 29.78 in 7.0 mi Calm Calm - N/A   Mostly Cloudy
6:30 PM 41.0 °F - 37.4 °F 87% 29.78 in 10.0 mi Calm Calm - N/A   Overcast
6:50 PM 41.0 °F 39.0 °F 37.4 °F 87% 29.79 in 10.0 mi West 3.5 mph - N/A   Overcast
7:10 PM 41.0 °F 37.1 °F 37.4 °F 87% 29.79 in 5.0 mi SSW 5.8 mph - 0.01 in   Overcast
7:30 PM 41.0 °F - 37.4 °F 87% 29.79 in 6.0 mi Calm Calm - 0.02 in   Overcast
7:50 PM 39.2 °F - 37.4 °F 93% 29.79 in 6.0 mi Calm Calm - 0.03 in   Overcast
8:10 PM 39.2 °F - 37.4 °F 93% 29.80 in 10.0 mi Calm Calm - N/A   Overcast
8:30 PM 39.2 °F - 37.4 °F 93% 29.79 in 10.0 mi Calm Calm - N/A   Overcast
8:50 PM 39.2 °F 37.0 °F 37.4 °F 93% 29.80 in 10.0 mi North 3.5 mph - N/A   Mostly Cloudy
9:10 PM 39.2 °F - 35.6 °F 87% 29.80 in 10.0 mi Calm Calm - N/A   Overcast
9:30 PM 39.2 °F - 35.6 °F 87% 29.80 in 10.0 mi Calm Calm - N/A   Overcast
9:50 PM 39.2 °F 37.0 °F 35.6 °F 87% 29.81 in 10.0 mi NW 3.5 mph - N/A   Overcast
10:10 PM 39.2 °F - 35.6 °F 87% 29.81 in 10.0 mi Calm Calm - N/A   Overcast
10:30 PM 39.2 °F - 35.6 °F 87% 29.82 in 10.0 mi Calm Calm - N/A   Scattered Clouds
10:50 PM 39.2 °F - 33.8 °F 81% 29.82 in 10.0 mi Calm Calm - N/A   Partly Cloudy
11:10 PM 37.4 °F 34.9 °F 35.6 °F 93% 29.83 in 10.0 mi NNW 3.5 mph - N/A   Clear
11:30 PM 37.4 °F 33.8 °F 33.8 °F 87% 29.83 in 10.0 mi NNW 4.6 mph - N/A   Clear
11:50 PM 37.4 °F - 35.6 °F 93% 29.84 in 10.0 mi Calm Calm - N/A   Clear